OM2RC-6 Weather Reports


time (UTC)temp
F
wind
direction
speed
knots
gust
knots
rain 1hr
in
rain 24hr
in
rain mn
in
humidity
%
barometer
mb
20260507140048 70 114 1.7 6.1 0.00 0.00 0.00 59 1013.9
20260507135548 70 120 2.6 6.1 0.00 0.00 0.00 61 1014.0
20260507135047 74 255 0.9 4.3 0.00 0.00 0.00 56 1013.9
20260507134546 70 106 1.7 4.3 0.00 0.00 0.00 60 1014.1
20260507134044 70 166 1.7 3.5 0.00 0.00 0.00 59 1014.1
20260507133543 70 213 1.7 7.8 0.00 0.00 0.00 63 1014.0
20260507133042 70 210 1.7 7.8 0.00 0.00 0.00 66 1014.0
20260507132541 69 194 1.7 8.7 0.00 0.00 0.00 66 1014.0
20260507132040 68 206 4.3 8.7 0.00 0.00 0.00 70 1014.1
20260507131539 68 212 5.2 7.0 0.00 0.00 0.00 68 1014.0
20260507131038 67 188 3.5 7.8 0.00 0.00 0.00 73 1014.1
20260507130537 66 200 3.5 7.8 0.00 0.00 0.00 76 1014.2
20260507130034 65 187 3.5 7.8 0.00 0.00 0.00 76 1014.2
20260507125532 66 205 3.5 7.0 0.00 0.00 0.00 77 1014.2
20260507125032 65 220 3.5 7.0 0.00 0.00 0.00 78 1014.3
20260507124529 65 211 5.2 7.0 0.00 0.00 0.00 78 1014.2
20260507124028 66 195 3.5 7.0 0.00 0.00 0.00 76 1014.2
20260507123527 66 208 2.6 7.0 0.00 0.00 0.00 75 1014.2
20260507122523 66 202 2.6 5.2 0.00 0.00 0.00 76 1014.2
20260507122022 66 201 3.5 6.1 0.00 0.00 0.00 75 1014.3
20260507121521 66 204 3.5 6.1 0.00 0.00 0.00 74 1014.3
20260507121019 67 275 1.7 4.3 0.00 0.00 0.00 72 1014.3
20260507120518 67 266 1.7 5.2 0.00 0.00 0.00 73 1014.4
20260507120017 66 231 1.7 6.1 0.00 0.00 0.00 73 1014.3
20260507115516 66 209 3.5 7.8 0.00 0.00 0.00 73 1014.4
20260507115015 68 209 4.3 7.8 0.00 0.00 0.00 69 1014.5
20260507114514 72 230 0.9 5.2 0.00 0.00 0.00 63 1014.3
20260507114013 69 211 1.7 7.0 0.00 0.00 0.00 70 1014.5
20260507113512 65 266 3.5 7.0 0.00 0.00 0.00 77 1014.6
20260507113011 64 254 3.5 7.0 0.00 0.00 0.00 79 1014.7
20260507112510 63 227 4.3 7.0 0.00 0.00 0.00 80 1014.7
20260507112008 64 194 3.5 7.0 0.00 0.00 0.00 79 1014.6
20260507111507 63 202 4.3 7.8 0.00 0.00 0.00 78 1014.7
20260507111006 63 227 3.5 7.8 0.00 0.00 0.00 78 1014.8
20260507110005 63 202 5.2 8.7 0.00 0.00 0.00 79 1014.9
20260507105503 63 258 5.2 8.7 0.00 0.00 0.00 78 1014.9
20260507104501 64 262 5.2 8.7 0.00 0.00 0.00 78 1015.0
20260507103457 63 263 5.2 11.3 0.00 0.00 0.00 83 1015.1
20260507102955 64 254 5.2 11.3 0.00 0.00 0.00 83 1014.9
20260507101953 64 239 3.5 8.7 0.00 0.00 0.00 83 1015.0
20260507101453 64 246 3.5 7.0 0.00 0.00 0.00 83 1015.1
20260507100951 63 232 4.3 8.7 0.00 0.00 0.00 84 1015.0
20260507100450 62 246 4.3 8.7 0.00 0.00 0.00 84 1015.0
20260507095444 62 246 4.3 9.6 0.00 0.00 0.00 87 1015.0
20260507094942 62 227 5.2 9.6 0.00 0.00 0.00 88 1014.9
20260507094441 62 252 5.2 8.7 0.00 0.00 0.00 89 1014.9
20260507093935 62 235 5.2 9.6 0.00 0.00 0.00 88 1014.9
20260507092933 62 216 4.3 8.7 0.00 0.00 0.00 85 1014.8
20260507092430 63 216 4.3 9.6 0.00 0.00 0.00 86 1014.8
20260507091427 62 214 6.1 11.3 0.00 0.00 0.00 89 1014.5
20260507090926 63 240 5.2 10.4 0.00 0.00 0.00 87 1014.6
20260507090425 62 227 6.1 10.4 0.00 0.00 0.00 86 1014.5
20260507085924 63 217 5.2 10.4 0.00 0.00 0.00 87 1014.5
20260507085422 62 228 7.0 12.2 0.00 0.00 0.00 84 1014.4
20260507084921 64 226 6.1 12.2 0.00 0.00 0.00 82 1014.2
20260507084420 66 242 4.3 8.7 0.00 0.00 0.00 77 1014.0
20260507083918 65 207 4.3 10.4 0.00 0.00 0.00 80 1014.0
20260507083416 65 237 5.2 11.3 0.00 0.00 0.00 81 1013.9
20260507082915 65 218 5.2 11.3 0.00 0.00 0.00 82 1013.8
20260507082414 64 217 5.2 13.0 0.00 0.00 0.00 84 1013.7
20260507081912 64 235 6.1 10.4 0.00 0.00 0.00 85 1013.8
20260507080409 65 220 5.2 11.3 0.00 0.00 0.00 87 1013.6
20260507075904 66 199 4.3 8.7 0.00 0.00 0.00 84 1013.6
20260507075403 66 202 3.5 10.4 0.00 0.00 0.00 85 1013.6
20260507074902 65 193 3.5 8.7 0.00 0.00 0.00 87 1013.6
20260507074401 64 227 4.3 8.7 0.00 0.00 0.00 89 1013.8
20260507073900 64 201 4.3 7.8 0.00 0.00 0.00 92 1013.7
20260507073358 63 256 3.5 7.8 0.00 0.00 0.00 97 1013.6
20260507072857 61 210 3.5 7.0 0.00 0.00 0.00 98 1013.6
20260507072356 60 228 3.5 7.8 0.00 0.00 0.00 100 1013.7
20260507071854 60 201 3.5 7.8 0.00 0.00 0.00 100 1013.7
20260507071353 60 232 2.6 7.0 0.00 0.00 0.00 100 1013.8
20260507070853 59 224 4.3 7.0 0.00 0.00 0.00 100 1013.7
20260507065851 58 227 4.3 7.8 0.00 0.00 0.00 100 1013.6
20260507065349 59 211 2.6 7.0 0.00 0.00 0.00 100 1013.6
20260507064847 58 211 1.7 6.1 0.00 0.00 0.00 100 1013.5
20260507064347 58 200 3.5 6.1 0.00 0.00 0.00 100 1013.5
20260507063846 58 193 2.6 8.7 0.00 0.00 0.00 100 1013.5
20260507063342 57 202 5.2 8.7 0.00 0.00 0.00 100 1013.5
20260507062840 57 203 4.3 8.7 0.00 0.00 0.00 100 1013.4
20260507062339 57 211 2.6 7.8 0.00 0.00 0.00 100 1013.4
20260507061837 57 198 4.3 7.0 0.00 0.00 0.00 100 1013.4
20260507060834 57 191 3.5 7.0 0.00 0.00 0.00 100 1013.3
20260507060333 57 205 3.5 8.7 0.00 0.00 0.00 100 1013.2
20260507055831 57 204 4.3 8.7 0.00 0.00 0.00 100 1013.1
20260507055330 56 200 5.2 8.7 0.00 0.00 0.00 100 1013.0
20260507054830 56 198 4.3 8.7 0.00 0.00 0.00 100 1013.0
20260507054329 56 195 3.5 10.4 0.00 0.00 0.00 100 1012.9
20260507053826 56 188 4.3 10.4 0.00 0.00 0.00 100 1012.9
20260507053325 56 199 5.2 10.4 0.00 0.00 0.00 100 1012.8
20260507052821 56 203 4.3 8.7 0.00 0.00 0.00 100 1012.8
20260507052318 56 205 5.2 8.7 0.00 0.00 0.00 100 1012.7
20260507051817 57 192 4.3 8.7 0.00 0.00 0.00 100 1012.5
20260507051316 57 187 3.5 6.1 0.00 0.00 0.00 100 1012.5
20260507050814 57 167 0.9 5.2 0.00 0.00 0.00 100 1012.3
20260507050309 57 192 2.6 6.1 0.00 0.00 0.00 100 1012.3
20260507045807 56 207 2.6 6.1 0.00 0.00 0.00 100 1012.4
20260507045306 56 214 2.6 7.0 0.00 0.00 0.00 100 1012.3
20260507044803 56 213 3.5 7.0 0.00 0.00 0.00 100 1012.3
20260507044302 56 214 4.3 7.0 0.00 0.00 0.00 100 1012.2
20260507043801 56 202 2.6 8.7 0.00 0.00 0.00 100 1012.0
20260507043259 56 216 2.6 6.1 0.00 0.00 0.00 100 1012.1
20260507042758 56 215 2.6 5.2 0.00 0.00 0.00 100 1011.9
20260507042257 56 199 2.6 8.7 0.00 0.00 0.00 100 1011.9
20260507041755 56 206 3.5 8.7 0.00 0.00 0.00 100 1011.9
20260507041253 56 207 3.5 7.8 0.00 0.00 0.00 100 1011.9
20260507040751 56 211 2.6 6.1 0.00 0.00 0.00 100 1011.8
20260507040250 56 224 1.7 3.5 0.00 0.00 0.00 100 1011.8
20260507035748 56 213 1.7 4.3 0.00 0.00 0.00 100 1011.8
20260507035247 56 210 1.7 7.8 0.00 0.00 0.00 100 1011.7
20260507034746 56 216 4.3 7.8 0.00 0.00 0.00 100 1011.7
20260507034245 56 230 2.6 6.1 0.00 0.00 0.00 100 1011.6
20260507033744 56 218 2.6 7.0 0.00 0.00 0.00 100 1011.6
20260507032530 56 214 1.7 5.2 0.00 0.00 0.00 100 1011.4
20260507032029 56 204 2.6 6.1 0.00 0.00 0.00 100 1011.2
20260507031526 56 196 3.5 6.1 0.00 0.00 0.00 100 1011.2
20260507031025 56 196 3.5 6.1 0.00 0.00 0.00 100 1011.1
20260507030524 56 198 2.6 7.8 0.00 0.00 0.00 100 1011.1
20260507030021 56 191 3.5 7.8 0.00 0.00 0.00 100 1011.2
20260507025521 57 186 2.6 5.2 0.00 0.00 0.00 100 1011.3
20260507025019 57 187 2.6 7.0 0.00 0.00 0.00 100 1011.1
20260507024518 57 179 2.6 7.0 0.00 0.00 0.00 100 1011.2
20260507024017 57 187 3.5 10.4 0.00 0.00 0.00 100 1011.2
20260507023514 57 174 4.3 10.4 0.00 0.00 0.00 100 1011.2
20260507023013 57 173 4.3 8.7 0.00 0.00 0.00 100 1011.1
20260507022511 57 198 3.5 7.8 0.00 0.00 0.00 100 1011.1
20260507022010 57 205 4.3 7.8 0.00 0.00 0.00 100 1011.1
20260507021508 57 189 3.5 6.1 0.00 0.00 0.00 100 1011.0
20260507021007 57 196 1.7 8.7 0.00 0.00 0.00 100 1010.9
20260507020506 57 188 4.3 8.7 0.00 0.00 0.00 100 1010.9
20260507020005 57 177 2.6 6.1 0.00 0.00 0.00 100 1010.9
20260507015504 57 181 2.6 5.2 0.00 0.00 0.00 100 1010.8
20260507015003 57 175 1.7 5.2 0.00 0.00 0.00 100 1010.8
20260507014501 57 166 1.7 6.1 0.00 0.00 0.00 100 1010.9
20260507013459 58 179 4.3 7.0 0.00 0.00 0.00 100 1010.9
20260507012956 58 192 3.5 7.0 0.00 0.00 0.00 100 1010.9
20260507012455 58 190 3.5 7.0 0.00 0.00 0.00 100 1011.0
20260507011953 58 202 3.5 8.7 0.00 0.00 0.00 100 1010.9
20260507011451 58 202 4.3 9.6 0.00 0.00 0.00 100 1010.9
20260507010449 59 208 4.3 10.4 0.00 0.00 0.00 100 1010.6
20260507005947 59 203 4.3 10.4 0.00 0.00 0.00 100 1010.5
20260507005443 59 204 5.2 11.3 0.00 0.00 0.00 100 1010.5
20260507004942 59 200 4.3 15.6 0.00 0.00 0.00 100 1010.3
20260507004441 59 200 6.1 15.6 0.00 0.00 0.00 100 1010.2
20260507003937 60 202 6.1 18.2 0.00 0.00 0.00 100 1010.1
20260507003432 60 212 7.8 18.2 0.00 0.00 0.00 100 1009.9
20260507002931 60 207 8.7 16.5 0.00 0.00 0.00 100 1009.8
20260507001427 61 202 9.6 19.1 0.00 0.00 0.00 100 1009.8
20260507000926 61 201 7.0 18.2 0.00 0.00 0.00 100 1009.7
20260506235924 61 202 10.4 20.0 0.00 0.00 0.00 100 1009.6
20260506235422 62 201 10.4 20.0 0.00 0.00 0.00 100 1009.5
20260506234916 62 198 9.6 20.0 0.00 0.00 0.00 100 1009.5
20260506234356 62 201 12.2 20.0 0.00 0.00 0.00 98 1009.3
20260506233844 62 198 10.4 25.2 0.00 0.00 0.00 96 1009.2
20260506233325 63 197 14.8 25.2 0.00 0.00 0.00 94 1009.2
20260506232824 63 201 7.0 15.6 0.00 0.00 0.00 94 1009.0
20260506231722 62 182 7.0 13.9 0.00 0.00 0.00 98 1008.9
20260506231213 61 182 6.1 17.4 0.00 0.00 0.00 100 1008.7
20260506230711 62 171 7.8 16.5 0.00 0.00 0.00 98 1008.5
20260506230210 62 177 10.4 18.2 0.00 0.00 0.00 98 1008.6
20260506225710 63 174 12.2 20.0 0.00 0.00 0.00 97 1008.4
20260506225208 62 155 8.7 23.5 0.00 0.00 0.00 99 1008.4
20260506224707 62 161 10.4 19.1 0.00 0.00 0.00 100 1008.3
20260506224206 62 160 12.2 19.1 0.00 0.00 0.00 98 1008.2
20260506223704 62 165 8.7 20.0 0.00 0.00 0.00 100 1008.3
20260506223203 62 157 9.6 20.0 0.00 0.00 0.00 100 1008.1
20260506222702 62 161 12.2 20.9 0.00 0.00 0.00 100 1008.2
20260506222157 62 168 11.3 20.0 0.00 0.00 0.00 100 1008.2
20260506221150 63 162 11.3 24.3 0.00 0.00 0.00 99 1008.2
20260506220649 63 151 11.3 24.3 0.00 0.00 0.00 99 1008.0
20260506220147 63 164 12.2 22.6 0.00 0.00 0.00 99 1008.1
20260506215646 62 156 11.3 20.9 0.00 0.00 0.00 100 1007.9
20260506215145 62 158 9.6 20.0 0.00 0.00 0.00 100 1008.0
20260506214644 62 153 11.3 20.0 0.00 0.00 0.00 100 1008.0
20260506214143 62 159 10.4 20.0 0.00 0.00 0.00 100 1008.0
20260506213640 62 158 8.7 20.0 0.00 0.00 0.00 100 1008.3
20260506213139 62 162 7.8 17.4 0.00 0.00 0.00 100 1008.4
20260506212638 62 155 9.6 20.0 0.00 0.00 0.00 100 1008.2
20260506212136 62 164 8.7 20.0 0.00 0.00 0.00 100 1008.3
20260506211133 62 151 7.8 18.2 0.00 0.00 0.00 100 1008.1
20260506210632 62 163 7.0 18.2 0.00 0.00 0.00 100 1008.1
20260506210129 63 154 8.7 18.2 0.00 0.00 0.00 100 1008.1
20260506205126 63 152 8.7 19.1 0.00 0.00 0.00 100 1008.0
20260506204625 63 153 9.6 19.1 0.00 0.00 0.00 100 1007.9
20260506204123 63 145 8.7 24.3 0.00 0.00 0.00 100 1007.9
20260506203622 63 155 10.4 24.3 0.00 0.00 0.00 99 1007.8
20260506203120 63 153 7.8 20.0 0.00 0.00 0.00 100 1007.6
20260506202618 63 168 8.7 21.7 0.00 0.00 0.00 99 1007.6
20260506202115 63 162 10.4 21.7 0.00 0.00 0.00 98 1007.7
20260506201614 63 149 8.7 18.2 0.00 0.00 0.00 98 1007.6
20260506201110 63 159 10.4 19.1 0.00 0.00 0.00 98 1007.6
20260506200609 64 157 10.4 20.9 0.00 0.00 0.00 97 1007.5
20260506200108 64 152 12.2 20.9 0.00 0.00 0.00 96 1007.6
20260506195606 64 148 9.6 19.1 0.00 0.00 0.00 95 1007.2
20260506195104 64 152 7.8 20.9 0.00 0.00 0.00 96 1007.6
20260506194602 64 153 10.4 20.9 0.00 0.00 0.00 94 1007.2
20260506194101 64 157 8.7 16.5 0.00 0.00 0.00 96 1007.3
20260506193600 64 145 8.7 19.1 0.00 0.00 0.00 95 1007.4
20260506193057 65 149 7.0 19.1 0.00 0.00 0.00 93 1007.5
20260506192554 65 149 8.7 19.1 0.00 0.00 0.00 92 1007.5
20260506192052 65 154 8.7 14.8 0.00 0.00 0.00 93 1007.5
20260506191551 65 160 8.7 19.1 0.00 0.00 0.00 94 1007.3
20260506191047 65 165 11.3 19.1 0.00 0.00 0.00 92 1007.4
20260506190545 65 164 7.0 16.5 0.00 0.00 0.00 93 1007.4
20260506190044 65 164 6.1 19.1 0.00 0.00 0.00 92 1007.5
20260506185543 65 153 9.6 19.1 0.00 0.00 0.00 90 1007.3
20260506185042 65 163 7.8 19.1 0.00 0.00 0.00 91 1007.3
20260506184540 66 165 9.6 19.1 0.00 0.00 0.00 89 1007.2
20260506184039 66 164 8.7 19.1 0.00 0.00 0.00 89 1007.0
20260506183532 66 154 8.7 19.1 0.00 0.00 0.00 88 1006.9
20260506183030 66 159 7.8 20.9 0.00 0.00 0.00 87 1006.8
20260506182028 66 167 8.7 15.6 0.00 0.00 0.00 85 1006.8
20260506181527 66 170 7.8 14.8 0.00 0.00 0.00 85 1006.9
20260506181025 66 168 7.0 12.2 0.00 0.00 0.00 84 1006.9
20260506180523 66 160 7.0 13.9 0.00 0.00 0.00 83 1006.9
20260506180021 67 164 8.7 15.6 0.00 0.00 0.00 82 1006.8
20260506175520 67 165 8.7 21.7 0.00 0.00 0.00 81 1006.8
20260506175018 67 157 8.7 21.7 0.00 0.00 0.00 81 1006.6
20260506174518 67 162 10.4 22.6 0.00 0.00 0.00 80 1006.5
20260506173515 68 160 7.8 20.9 0.00 0.00 0.00 79 1006.4
20260506173013 68 153 10.4 20.0 0.00 0.00 0.00 77 1006.3
20260506172512 68 151 9.6 23.5 0.00 0.00 0.00 76 1006.5
20260506172009 69 154 9.6 22.6 0.00 0.00 0.00 75 1006.4
20260506171508 69 155 13.0 22.6 0.00 0.00 0.00 74 1006.2
20260506170505 69 162 7.0 19.1 0.00 0.00 0.00 73 1006.7
20260506170003 70 162 8.7 18.2 0.00 0.00 0.00 72 1006.6
20260506165502 70 173 5.2 19.1 0.00 0.00 0.00 70 1006.7
20260506165001 70 166 10.4 18.2 0.00 0.00 0.00 71 1006.8
20260506164459 70 173 11.3 18.2 0.00 0.00 0.00 69 1006.7
20260506163958 70 157 7.0 19.1 0.00 0.00 0.00 69 1006.8
20260506163456 71 165 10.4 19.1 0.00 0.00 0.00 68 1006.9
20260506162955 71 157 9.6 18.2 0.00 0.00 0.00 67 1006.9
20260506162454 71 156 11.3 18.2 0.00 0.00 0.00 66 1006.7
20260506161953 71 167 7.0 18.2 0.00 0.00 0.00 67 1006.8
20260506161452 71 165 8.7 18.2 0.00 0.00 0.00 67 1006.9
20260506160949 71 162 9.6 18.2 0.00 0.00 0.00 65 1007.0
20260506160447 72 172 7.8 18.2 0.00 0.00 0.00 64 1007.0
20260506155946 73 177 6.1 14.8 0.00 0.00 0.00 65 1007.2
20260506155445 72 169 6.1 16.5 0.00 0.00 0.00 65 1007.2
20260506154944 72 170 7.8 16.5 0.00 0.00 0.00 64 1007.1
20260506154443 73 172 5.2 16.5 0.00 0.00 0.00 66 1007.1
20260506153941 72 185 7.0 16.5 0.00 0.00 0.00 66 1007.2
20260506153440 73 175 7.0 16.5 0.00 0.00 0.00 67 1007.1
20260506152939 73 166 7.8 14.8 0.00 0.00 0.00 67 1007.1
20260506152436 72 163 7.0 19.1 0.00 0.00 0.00 66 1007.2
20260506151934 72 166 8.7 19.1 0.00 0.00 0.00 65 1007.4
20260506150930 73 175 6.1 18.2 0.00 0.00 0.00 64 1007.5
20260506150427 73 156 9.6 18.2 0.00 0.00 0.00 63 1007.5
20260506145924 73 155 8.7 20.9 0.00 0.00 0.00 63 1007.7
20260506145423 73 163 11.3 20.9 0.00 0.00 0.00 61 1007.4
20260506144421 74 169 7.8 20.9 0.00 0.00 0.00 58 1007.5
20260506143920 74 172 8.7 20.9 0.00 0.00 0.00 59 1007.6
20260506143419 75 173 7.0 17.4 0.00 0.00 0.00 58 1007.4
20260506142416 74 145 9.6 16.5 0.00 0.00 0.00 58 1007.4
20260506141915 74 142 7.0 14.8 0.00 0.00 0.00 57 1007.5
20260506140912 73 174 7.0 17.4 0.00 0.00 0.00 58 1007.6